Time,TemperatureF,DewpointF,PressureIn,WindDirection,WindDirectionDegrees,WindSpeedMPH,WindSpeedGustMPH,Humidity,HourlyPrecipIn,Conditions,Clouds,dailyrainin,SoftwareType,DateUTC
2013-01-08 00:00:00,52.0,50.0,-100.00,NNW,348,14.0,-999.0,91,0.00,,,-99.99,,2013-01-08 08:00:00,
2013-01-08 00:22:00,52.0,50.0,-100.00,NNW,348,14.0,-999.0,91,0.00,,,-99.99,,2013-01-08 08:22:00,
2013-01-08 00:32:00,52.0,50.0,-100.00,NNW,348,14.0,-999.0,91,0.00,,,-99.99,,2013-01-08 08:32:00,
2013-01-08 00:42:00,52.0,50.0,-100.00,NNW,348,14.0,-999.0,91,0.00,,,-99.99,,2013-01-08 08:42:00,
2013-01-08 00:52:00,52.0,50.0,-100.00,NNW,348,14.0,-999.0,91,0.00,,,-99.99,,2013-01-08 08:52:00,
2013-01-08 01:00:00,52.0,50.0,-100.00,NNW,340,15.0,-999.0,90,0.00,,,-99.99,,2013-01-08 09:00:00,
2013-01-08 01:22:00,52.0,50.0,-100.00,NNW,340,15.0,-999.0,90,0.00,,,-99.99,,2013-01-08 09:22:00,
2013-01-08 01:33:00,52.0,50.0,-100.00,NNW,340,15.0,-999.0,90,0.00,,,-99.99,,2013-01-08 09:33:00,
2013-01-08 01:42:00,52.0,50.0,-100.00,NNW,340,15.0,-999.0,90,0.00,,,-99.99,,2013-01-08 09:42:00,
2013-01-08 01:52:00,52.0,50.0,-100.00,NNW,340,15.0,-999.0,90,0.00,,,-99.99,,2013-01-08 09:52:00,
2013-01-08 02:00:00,52.0,49.0,-100.00,North,357,15.0,-999.0,90,0.00,,,-99.99,,2013-01-08 10:00:00,
2013-01-08 02:22:00,52.0,49.0,-100.00,North,357,15.0,-999.0,90,0.00,,,-99.99,,2013-01-08 10:22:00,
2013-01-08 02:33:00,52.0,49.0,-100.00,North,357,15.0,-999.0,90,0.00,,,-99.99,,2013-01-08 10:33:00,
2013-01-08 02:42:00,52.0,49.0,-100.00,North,357,15.0,-999.0,90,0.00,,,-99.99,,2013-01-08 10:42:00,
2013-01-08 02:52:00,52.0,49.0,-100.00,North,357,15.0,-999.0,90,0.00,,,-99.99,,2013-01-08 10:52:00,
2013-01-08 03:00:00,51.0,49.0,-100.00,NNW,337,15.0,-999.0,89,0.00,,,-99.99,,2013-01-08 11:00:00,
2013-01-08 03:23:00,51.0,49.0,-100.00,NNW,337,15.0,-999.0,89,0.00,,,-99.99,,2013-01-08 11:23:00,
2013-01-08 03:33:00,51.0,49.0,-100.00,NNW,337,15.0,-999.0,89,0.00,,,-99.99,,2013-01-08 11:33:00,
2013-01-08 03:42:00,51.0,49.0,-100.00,NNW,337,15.0,-999.0,89,0.00,,,-99.99,,2013-01-08 11:42:00,
2013-01-08 03:53:00,51.0,49.0,-100.00,NNW,337,15.0,-999.0,89,0.00,,,-99.99,,2013-01-08 11:53:00,
2013-01-08 04:00:00,51.0,49.0,-100.00,NW,326,15.0,-999.0,90,0.00,,,-99.99,,2013-01-08 12:00:00,
2013-01-08 04:22:00,51.0,49.0,-100.00,NW,326,15.0,-999.0,90,0.00,,,-99.99,,2013-01-08 12:22:00,
2013-01-08 04:33:00,51.0,49.0,-100.00,NW,326,15.0,-999.0,90,0.00,,,-99.99,,2013-01-08 12:33:00,
2013-01-08 04:43:00,51.0,49.0,-100.00,NW,326,15.0,-999.0,90,0.00,,,-99.99,,2013-01-08 12:43:00,
2013-01-08 04:53:00,51.0,49.0,-100.00,NW,326,15.0,-999.0,90,0.00,,,-99.99,,2013-01-08 12:53:00,
2013-01-08 05:00:00,52.0,49.0,-100.00,North,4,10.0,-999.0,89,0.00,,,-99.99,,2013-01-08 13:00:00,
2013-01-08 05:22:00,52.0,49.0,-100.00,North,4,10.0,-999.0,89,0.00,,,-99.99,,2013-01-08 13:22:00,
2013-01-08 05:33:00,52.0,49.0,-100.00,North,4,10.0,-999.0,89,0.00,,,-99.99,,2013-01-08 13:33:00,
2013-01-08 05:43:00,52.0,49.0,-100.00,North,4,10.0,-999.0,89,0.00,,,-99.99,,2013-01-08 13:43:00,
2013-01-08 05:53:00,52.0,49.0,-100.00,North,4,10.0,-999.0,89,0.00,,,-99.99,,2013-01-08 13:53:00,
2013-01-08 17:00:00,50.0,48.0,-100.00,NNW,338,7.0,-999.0,90,0.00,,,-99.99,,2013-01-09 01:00:00,
2013-01-08 17:22:00,50.0,48.0,-100.00,NNW,338,7.0,-999.0,90,0.00,,,-99.99,,2013-01-09 01:22:00,
2013-01-08 17:33:00,50.0,48.0,-100.00,NNW,338,7.0,-999.0,90,0.00,,,-99.99,,2013-01-09 01:33:00,
2013-01-08 17:42:00,50.0,48.0,-100.00,NNW,338,7.0,-999.0,90,0.00,,,-99.99,,2013-01-09 01:42:00,
2013-01-08 17:52:00,50.0,48.0,-100.00,NNW,338,7.0,-999.0,90,0.00,,,-99.99,,2013-01-09 01:52:00,
2013-01-08 18:00:00,49.0,47.0,-100.00,NNW,338,13.0,-999.0,91,0.00,,,-99.99,,2013-01-09 02:00:00,
2013-01-08 18:23:00,49.0,47.0,-100.00,NNW,338,13.0,-999.0,91,0.00,,,-99.99,,2013-01-09 02:23:00,
2013-01-08 18:33:00,49.0,47.0,-100.00,NNW,338,13.0,-999.0,91,0.00,,,-99.99,,2013-01-09 02:33:00,
2013-01-08 18:43:00,49.0,47.0,-100.00,NNW,338,13.0,-999.0,91,0.00,,,-99.99,,2013-01-09 02:43:00,
2013-01-08 18:53:00,49.0,47.0,-100.00,NNW,338,13.0,-999.0,91,0.00,,,-99.99,,2013-01-09 02:53:00,
2013-01-08 19:00:00,49.0,47.0,-100.00,NNW,339,9.0,-999.0,91,0.00,,,-99.99,,2013-01-09 03:00:00,
2013-01-08 19:22:00,49.0,47.0,-100.00,NNW,339,9.0,-999.0,91,0.00,,,-99.99,,2013-01-09 03:22:00,
2013-01-08 19:33:00,49.0,47.0,-100.00,NNW,339,9.0,-999.0,91,0.00,,,-99.99,,2013-01-09 03:33:00,
2013-01-08 19:43:00,49.0,47.0,-100.00,NNW,339,9.0,-999.0,91,0.00,,,-99.99,,2013-01-09 03:43:00,
2013-01-08 19:52:00,49.0,47.0,-100.00,NNW,339,9.0,-999.0,91,0.00,,,-99.99,,2013-01-09 03:52:00,
2013-01-08 20:00:00,50.0,47.0,-100.00,NNW,346,15.0,-999.0,92,0.00,,,-99.99,,2013-01-09 04:00:00,
2013-01-08 20:23:00,50.0,47.0,-100.00,NNW,346,15.0,-999.0,92,0.00,,,-99.99,,2013-01-09 04:23:00,
2013-01-08 20:33:00,50.0,47.0,-100.00,NNW,346,15.0,-999.0,92,0.00,,,-99.99,,2013-01-09 04:33:00,
2013-01-08 20:43:00,50.0,47.0,-100.00,NNW,346,15.0,-999.0,92,0.00,,,-99.99,,2013-01-09 04:43:00,
2013-01-08 20:52:00,50.0,47.0,-100.00,NNW,346,15.0,-999.0,92,0.00,,,-99.99,,2013-01-09 04:52:00,
2013-01-08 21:00:00,49.0,47.0,-100.00,NNW,343,13.0,-999.0,92,0.00,,,-99.99,,2013-01-09 05:00:00,
2013-01-08 21:22:00,49.0,47.0,-100.00,NNW,343,13.0,-999.0,92,0.00,,,-99.99,,2013-01-09 05:22:00,
2013-01-08 21:33:00,49.0,47.0,-100.00,NNW,343,13.0,-999.0,92,0.00,,,-99.99,,2013-01-09 05:33:00,
2013-01-08 21:43:00,49.0,47.0,-100.00,NNW,343,13.0,-999.0,92,0.00,,,-99.99,,2013-01-09 05:43:00,
2013-01-08 21:52:00,49.0,47.0,-100.00,NNW,343,13.0,-999.0,92,0.00,,,-99.99,,2013-01-09 05:52:00,
2013-01-08 22:00:00,50.0,47.0,-100.00,NNW,337,12.0,-999.0,92,0.00,,,-99.99,,2013-01-09 06:00:00,
2013-01-08 22:22:00,50.0,47.0,-100.00,NNW,337,12.0,-999.0,92,0.00,,,-99.99,,2013-01-09 06:22:00,
2013-01-08 22:32:00,50.0,47.0,-100.00,NNW,337,12.0,-999.0,92,0.00,,,-99.99,,2013-01-09 06:32:00,
2013-01-08 22:42:00,50.0,47.0,-100.00,NNW,337,12.0,-999.0,92,0.00,,,-99.99,,2013-01-09 06:42:00,
2013-01-08 22:52:00,50.0,47.0,-100.00,NNW,337,12.0,-999.0,92,0.00,,,-99.99,,2013-01-09 06:52:00,
2013-01-08 23:00:00,50.0,47.0,-100.00,NNW,328,8.0,-999.0,91,0.00,,,-99.99,,2013-01-09 07:00:00,
2013-01-08 23:22:00,50.0,47.0,-100.00,NNW,328,8.0,-999.0,91,0.00,,,-99.99,,2013-01-09 07:22:00,
2013-01-08 23:32:00,50.0,47.0,-100.00,NNW,328,8.0,-999.0,91,0.00,,,-99.99,,2013-01-09 07:32:00,
2013-01-08 23:42:00,50.0,47.0,-100.00,NNW,328,8.0,-999.0,91,0.00,,,-99.99,,2013-01-09 07:42:00,
2013-01-08 23:52:00,50.0,47.0,-100.00,NNW,328,8.0,-999.0,91,0.00,,,-99.99,,2013-01-09 07:52:00,